Time,TemperatureF,DewpointF,PressureIn,WindDirection,WindDirectionDegrees,WindSpeedMPH,WindSpeedGustMPH,Humidity,HourlyPrecipIn,Conditions,Clouds,dailyrainin,SoftwareType,DateUTC
2013-06-04 00:02:00,51.0,-99.9,29.90,East,94,3.0,5.0,-999,-99.99,,,-99.99,,2013-06-04 07:02:00,
2013-06-04 00:13:00,51.0,-99.9,29.90,East,91,3.0,6.0,-999,-99.99,,,-99.99,,2013-06-04 07:13:00,
2013-06-04 00:22:00,51.0,-99.9,29.90,NE,55,1.0,5.0,-999,-99.99,,,-99.99,,2013-06-04 07:22:00,
2013-06-04 00:32:00,51.0,-99.9,29.90,East,101,3.0,4.0,-999,-99.99,,,-99.99,,2013-06-04 07:32:00,
2013-06-04 00:42:00,51.0,-99.9,29.90,East,99,2.0,4.0,-999,-99.99,,,-99.99,,2013-06-04 07:42:00,
2013-06-04 00:52:00,51.0,-99.9,29.90,East,96,2.0,4.0,-999,-99.99,,,-99.99,,2013-06-04 07:52:00,
2013-06-04 01:02:00,51.0,-99.9,29.90,ESE,104,3.0,5.0,-999,-99.99,,,-99.99,,2013-06-04 08:02:00,
2013-06-04 01:12:00,51.0,-99.9,29.89,ESE,108,3.0,4.0,-999,-99.99,,,-99.99,,2013-06-04 08:12:00,
2013-06-04 01:22:00,51.0,-99.9,29.89,East,88,3.0,6.0,-999,-99.99,,,-99.99,,2013-06-04 08:22:00,
2013-06-04 01:32:00,51.0,-99.9,29.88,SSE,158,1.0,3.0,-999,-99.99,,,-99.99,,2013-06-04 08:32:00,
2013-06-04 01:42:00,51.0,-99.9,29.88,SSW,206,2.0,4.0,-999,-99.99,,,-99.99,,2013-06-04 08:42:00,
2013-06-04 01:52:00,51.0,-99.9,29.88,SE,144,0.0,2.0,-999,-99.99,,,-99.99,,2013-06-04 08:52:00,
2013-06-04 02:02:00,51.0,-99.9,29.88,ESE,117,1.0,2.0,-999,-99.99,,,-99.99,,2013-06-04 09:02:00,
2013-06-04 02:12:00,51.0,-99.9,29.88,East,98,2.0,3.0,-999,-99.99,,,-99.99,,2013-06-04 09:12:00,
2013-06-04 02:22:00,51.0,-99.9,29.88,ESE,122,3.0,5.0,-999,-99.99,,,-99.99,,2013-06-04 09:22:00,
2013-06-04 02:33:00,51.0,-99.9,29.88,South,183,1.0,4.0,-999,-99.99,,,-99.99,,2013-06-04 09:33:00,
2013-06-04 02:43:00,51.0,-99.9,29.88,ESE,104,2.0,3.0,-999,-99.99,,,-99.99,,2013-06-04 09:43:00,
2013-06-04 02:53:00,51.0,-99.9,29.88,East,96,4.0,5.0,-999,-99.99,,,-99.99,,2013-06-04 09:53:00,
2013-06-04 03:03:00,51.0,-99.9,29.88,ESE,112,3.0,5.0,-999,-99.99,,,-99.99,,2013-06-04 10:03:00,
2013-06-04 03:12:00,51.0,-99.9,29.88,ESE,110,4.0,6.0,-999,-99.99,,,-99.99,,2013-06-04 10:12:00,
2013-06-04 03:23:00,51.0,-99.9,29.88,SE,130,2.0,4.0,-999,-99.99,,,-99.99,,2013-06-04 10:23:00,
2013-06-04 03:33:00,50.0,-99.9,29.88,SSW,203,2.0,5.0,-999,-99.99,,,-99.99,,2013-06-04 10:33:00,
2013-06-04 03:42:00,50.0,-99.9,29.88,ESE,104,3.0,5.0,-999,-99.99,,,-99.99,,2013-06-04 10:42:00,
2013-06-04 03:53:00,51.0,-99.9,29.88,ESE,117,3.0,5.0,-999,-99.99,,,-99.99,,2013-06-04 10:53:00,
2013-06-04 04:02:00,50.0,-99.9,29.87,ESE,105,3.0,5.0,-999,-99.99,,,-99.99,,2013-06-04 11:02:00,
2013-06-04 04:12:00,50.0,-99.9,29.88,East,101,3.0,5.0,-999,-99.99,,,-99.99,,2013-06-04 11:12:00,
2013-06-04 04:22:00,50.0,-99.9,29.87,ESE,123,3.0,4.0,-999,-99.99,,,-99.99,,2013-06-04 11:22:00,
2013-06-04 04:32:00,50.0,-99.9,29.87,ESE,104,4.0,6.0,-999,-99.99,,,-99.99,,2013-06-04 11:32:00,
2013-06-04 04:43:00,50.0,-99.9,29.87,ESE,106,5.0,6.0,-999,-99.99,,,-99.99,,2013-06-04 11:43:00,
2013-06-04 04:52:00,51.0,-99.9,29.87,ESE,110,5.0,7.0,-999,-99.99,,,-99.99,,2013-06-04 11:52:00,
2013-06-04 05:02:00,50.0,-99.9,29.87,ESE,115,4.0,7.0,-999,-99.99,,,-99.99,,2013-06-04 12:02:00,
2013-06-04 05:12:00,50.0,-99.9,29.87,ESE,115,4.0,7.0,-999,-99.99,,,-99.99,,2013-06-04 12:12:00,
2013-06-04 05:22:00,50.0,-99.9,29.87,ESE,104,4.0,6.0,-999,-99.99,,,-99.99,,2013-06-04 12:22:00,
2013-06-04 05:32:00,51.0,-99.9,29.88,ESE,111,4.0,7.0,-999,-99.99,,,-99.99,,2013-06-04 12:32:00,
2013-06-04 05:42:00,50.0,-99.9,29.88,SSE,148,2.0,6.0,-999,-99.99,,,-99.99,,2013-06-04 12:42:00,
2013-06-04 05:53:00,51.0,-99.9,29.88,East,93,2.0,6.0,-999,-99.99,,,-99.99,,2013-06-04 12:53:00,
2013-06-04 06:03:00,50.0,-99.9,29.88,ESE,121,2.0,3.0,-999,-99.99,,,-99.99,,2013-06-04 13:03:00,
2013-06-04 06:12:00,50.0,-99.9,29.88,East,99,3.0,6.0,-999,-99.99,,,-99.99,,2013-06-04 13:12:00,
2013-06-04 06:23:00,50.0,-99.9,29.88,ESE,119,3.0,6.0,-999,-99.99,,,-99.99,,2013-06-04 13:23:00,
2013-06-04 06:32:00,50.0,-99.9,29.89,SE,130,3.0,5.0,-999,-99.99,,,-99.99,,2013-06-04 13:32:00,
2013-06-04 06:42:00,50.0,-99.9,29.89,East,95,3.0,5.0,-999,-99.99,,,-99.99,,2013-06-04 13:42:00,
2013-06-04 06:52:00,50.0,-99.9,29.89,ESE,105,2.0,4.0,-999,-99.99,,,-99.99,,2013-06-04 13:52:00,
2013-06-04 07:02:00,50.0,-99.9,29.89,West,265,1.0,5.0,-999,-99.99,,,-99.99,,2013-06-04 14:02:00,
2013-06-04 07:12:00,50.0,-99.9,29.89,ESE,118,2.0,5.0,-999,-99.99,,,-99.99,,2013-06-04 14:12:00,
2013-06-04 07:22:00,50.0,-99.9,29.89,East,98,3.0,6.0,-999,-99.99,,,-99.99,,2013-06-04 14:22:00,
2013-06-04 07:32:00,50.0,-99.9,29.90,ESE,103,4.0,6.0,-999,-99.99,,,-99.99,,2013-06-04 14:32:00,
2013-06-04 07:43:00,50.0,-99.9,29.90,East,96,6.0,8.0,-999,-99.99,,,-99.99,,2013-06-04 14:43:00,
2013-06-04 07:52:00,50.0,-99.9,29.91,ESE,111,5.0,9.0,-999,-99.99,,,-99.99,,2013-06-04 14:52:00,
2013-06-04 08:02:00,50.0,-99.9,29.91,ESE,106,5.0,11.0,-999,-99.99,,,-99.99,,2013-06-04 15:02:00,
2013-06-04 08:12:00,51.0,-99.9,29.91,East,95,4.0,8.0,-999,-99.99,,,-99.99,,2013-06-04 15:12:00,
2013-06-04 08:22:00,51.0,-99.9,29.91,East,100,6.0,10.0,-999,-99.99,,,-99.99,,2013-06-04 15:22:00,
2013-06-04 08:33:00,51.0,-99.9,29.91,East,101,7.0,10.0,-999,-99.99,,,-99.99,,2013-06-04 15:33:00,
2013-06-04 08:42:00,51.0,-99.9,29.92,ESE,102,7.0,10.0,-999,-99.99,,,-99.99,,2013-06-04 15:42:00,
2013-06-04 08:53:00,51.0,-99.9,29.92,ESE,105,8.0,12.0,-999,-99.99,,,-99.99,,2013-06-04 15:53:00,
2013-06-04 09:03:00,51.0,-99.9,29.93,East,101,9.0,11.0,-999,-99.99,,,-99.99,,2013-06-04 16:03:00,
2013-06-04 09:13:00,51.0,-99.9,29.93,ESE,107,7.0,12.0,-999,-99.99,,,-99.99,,2013-06-04 16:13:00,
2013-06-04 09:23:00,51.0,-99.9,29.93,ESE,104,6.0,13.0,-999,-99.99,,,-99.99,,2013-06-04 16:23:00,
2013-06-04 09:33:00,52.0,-99.9,29.93,ESE,103,8.0,14.0,-999,-99.99,,,-99.99,,2013-06-04 16:33:00,
2013-06-04 09:42:00,52.0,-99.9,29.94,East,100,9.0,14.0,-999,-99.99,,,-99.99,,2013-06-04 16:42:00,
2013-06-04 09:53:00,52.0,-99.9,29.94,ESE,102,9.0,15.0,-999,-99.99,,,-99.99,,2013-06-04 16:53:00,
2013-06-04 10:03:00,52.0,-99.9,29.94,ESE,116,6.0,17.0,-999,-99.99,,,-99.99,,2013-06-04 17:03:00,
2013-06-04 10:12:00,52.0,-99.9,29.94,East,100,9.0,14.0,-999,-99.99,,,-99.99,,2013-06-04 17:12:00,
2013-06-04 10:23:00,52.0,-99.9,29.95,ESE,102,9.0,17.0,-999,-99.99,,,-99.99,,2013-06-04 17:23:00,
2013-06-04 10:33:00,53.0,-99.9,29.95,ESE,105,6.0,14.0,-999,-99.99,,,-99.99,,2013-06-04 17:33:00,
2013-06-04 10:42:00,53.0,-99.9,29.95,ESE,122,6.0,14.0,-999,-99.99,,,-99.99,,2013-06-04 17:42:00,
2013-06-04 10:52:00,54.0,-99.9,29.95,ESE,104,7.0,14.0,-999,-99.99,,,-99.99,,2013-06-04 17:52:00,
2013-06-04 11:02:00,54.0,-99.9,29.95,SE,128,5.0,10.0,-999,-99.99,,,-99.99,,2013-06-04 18:02:00,
2013-06-04 11:12:00,54.0,-99.9,29.95,SE,131,6.0,11.0,-999,-99.99,,,-99.99,,2013-06-04 18:12:00,
2013-06-04 11:22:00,54.0,-99.9,29.95,East,97,3.0,11.0,-999,-99.99,,,-99.99,,2013-06-04 18:22:00,
2013-06-04 11:32:00,53.0,-99.9,29.96,SSE,155,7.0,10.0,-999,-99.99,,,-99.99,,2013-06-04 18:32:00,
2013-06-04 11:42:00,53.0,-99.9,29.96,SSE,161,4.0,9.0,-999,-99.99,,,-99.99,,2013-06-04 18:42:00,
2013-06-04 11:53:00,53.0,-99.9,29.96,SW,217,4.0,10.0,-999,-99.99,,,-99.99,,2013-06-04 18:53:00,
2013-06-04 12:02:00,53.0,-99.9,29.96,ESE,104,3.0,10.0,-999,-99.99,,,-99.99,,2013-06-04 19:02:00,
2013-06-04 12:12:00,53.0,-99.9,29.96,SSW,200,7.0,12.0,-999,-99.99,,,-99.99,,2013-06-04 19:12:00,
2013-06-04 12:22:00,53.0,-99.9,29.96,SSW,197,4.0,10.0,-999,-99.99,,,-99.99,,2013-06-04 19:22:00,
2013-06-04 12:33:00,53.0,-99.9,29.96,South,186,3.0,10.0,-999,-99.99,,,-99.99,,2013-06-04 19:33:00,
2013-06-04 12:42:00,53.0,-99.9,29.96,SSW,198,4.0,9.0,-999,-99.99,,,-99.99,,2013-06-04 19:42:00,
2013-06-04 12:52:00,53.0,-99.9,29.96,SSW,199,6.0,13.0,-999,-99.99,,,-99.99,,2013-06-04 19:52:00,
2013-06-04 13:03:00,54.0,-99.9,29.96,SE,133,6.0,12.0,-999,-99.99,,,-99.99,,2013-06-04 20:03:00,
2013-06-04 13:13:00,53.0,-99.9,29.96,SSW,195,5.0,9.0,-999,-99.99,,,-99.99,,2013-06-04 20:13:00,
2013-06-04 13:22:00,53.0,-99.9,29.96,SW,214,6.0,10.0,-999,-99.99,,,-99.99,,2013-06-04 20:22:00,
2013-06-04 13:32:00,53.0,-99.9,29.97,South,173,5.0,13.0,-999,-99.99,,,-99.99,,2013-06-04 20:32:00,
2013-06-04 13:42:00,54.0,-99.9,29.97,SSW,207,7.0,13.0,-999,-99.99,,,-99.99,,2013-06-04 20:42:00,
2013-06-04 13:53:00,54.0,-99.9,29.97,SSE,152,4.0,13.0,-999,-99.99,,,-99.99,,2013-06-04 20:53:00,
2013-06-04 14:02:00,54.0,-99.9,29.97,SSW,212,4.0,8.0,-999,-99.99,,,-99.99,,2013-06-04 21:02:00,
2013-06-04 14:12:00,54.0,-99.9,29.97,SSW,209,5.0,12.0,-999,-99.99,,,-99.99,,2013-06-04 21:12:00,
2013-06-04 14:22:00,54.0,-99.9,29.97,SW,217,4.0,13.0,-999,-99.99,,,-99.99,,2013-06-04 21:22:00,
2013-06-04 14:33:00,54.0,-99.9,29.97,SSW,197,8.0,14.0,-999,-99.99,,,-99.99,,2013-06-04 21:33:00,
2013-06-04 14:43:00,54.0,-99.9,29.98,SSW,202,4.0,8.0,-999,-99.99,,,-99.99,,2013-06-04 21:43:00,
2013-06-04 14:53:00,54.0,-99.9,29.98,SSW,212,5.0,9.0,-999,-99.99,,,-99.99,,2013-06-04 21:53:00,
2013-06-04 15:02:00,54.0,-99.9,29.98,SW,224,3.0,10.0,-999,-99.99,,,-99.99,,2013-06-04 22:02:00,
2013-06-04 15:13:00,54.0,-99.9,29.98,SSW,212,5.0,11.0,-999,-99.99,,,-99.99,,2013-06-04 22:13:00,
2013-06-04 15:22:00,54.0,-99.9,29.98,SSW,193,5.0,11.0,-999,-99.99,,,-99.99,,2013-06-04 22:22:00,
2013-06-04 15:33:00,54.0,-99.9,29.98,SW,221,5.0,13.0,-999,-99.99,,,-99.99,,2013-06-04 22:33:00,
2013-06-04 15:42:00,54.0,-99.9,29.98,SSW,203,7.0,12.0,-999,-99.99,,,-99.99,,2013-06-04 22:42:00,
2013-06-04 15:52:00,53.0,-99.9,29.98,SSW,198,9.0,15.0,-999,-99.99,,,-99.99,,2013-06-04 22:52:00,
2013-06-04 16:02:00,54.0,-99.9,29.97,SSW,197,6.0,12.0,-999,-99.99,,,-99.99,,2013-06-04 23:02:00,
2013-06-04 16:12:00,53.0,-99.9,29.98,SSW,193,7.0,12.0,-999,-99.99,,,-99.99,,2013-06-04 23:12:00,
2013-06-04 16:22:00,53.0,-99.9,29.98,SSW,203,3.0,14.0,-999,-99.99,,,-99.99,,2013-06-04 23:22:00,
2013-06-04 16:32:00,53.0,-99.9,29.97,SSW,194,8.0,15.0,-999,-99.99,,,-99.99,,2013-06-04 23:32:00,
2013-06-04 16:42:00,53.0,-99.9,29.98,SSW,209,6.0,11.0,-999,-99.99,,,-99.99,,2013-06-04 23:42:00,
2013-06-04 16:52:00,53.0,-99.9,29.98,SSW,202,6.0,11.0,-999,-99.99,,,-99.99,,2013-06-04 23:52:00,
2013-06-04 17:02:00,53.0,-99.9,29.97,SSW,196,6.0,10.0,-999,-99.99,,,-99.99,,2013-06-05 00:02:00,
2013-06-04 17:12:00,54.0,-99.9,29.97,SSW,213,3.0,11.0,-999,-99.99,,,-99.99,,2013-06-05 00:12:00,
2013-06-04 17:22:00,53.0,-99.9,29.97,SSW,201,6.0,9.0,-999,-99.99,,,-99.99,,2013-06-05 00:22:00,
2013-06-04 17:33:00,53.0,-99.9,29.97,SSW,192,7.0,13.0,-999,-99.99,,,-99.99,,2013-06-05 00:33:00,
2013-06-04 17:42:00,53.0,-99.9,29.97,South,187,6.0,9.0,-999,-99.99,,,-99.99,,2013-06-05 00:42:00,
2013-06-04 17:52:00,53.0,-99.9,29.97,South,191,7.0,10.0,-999,-99.99,,,-99.99,,2013-06-05 00:52:00,
2013-06-04 18:02:00,53.0,-99.9,29.97,South,174,5.0,10.0,-999,-99.99,,,-99.99,,2013-06-05 01:02:00,
2013-06-04 18:12:00,53.0,-99.9,29.97,South,183,5.0,7.0,-999,-99.99,,,-99.99,,2013-06-05 01:12:00,
2013-06-04 18:22:00,53.0,-99.9,29.97,South,173,6.0,9.0,-999,-99.99,,,-99.99,,2013-06-05 01:22:00,
2013-06-04 18:32:00,53.0,-99.9,29.96,South,183,4.0,8.0,-999,-99.99,,,-99.99,,2013-06-05 01:32:00,
2013-06-04 18:42:00,53.0,-99.9,29.97,SSE,163,2.0,8.0,-999,-99.99,,,-99.99,,2013-06-05 01:42:00,
2013-06-04 18:52:00,53.0,-99.9,29.96,SSW,197,1.0,5.0,-999,-99.99,,,-99.99,,2013-06-05 01:52:00,
2013-06-04 19:02:00,53.0,-99.9,29.96,South,179,3.0,5.0,-999,-99.99,,,-99.99,,2013-06-05 02:02:00,
2013-06-04 19:12:00,53.0,-99.9,29.96,SSW,198,3.0,5.0,-999,-99.99,,,-99.99,,2013-06-05 02:12:00,
2013-06-04 19:22:00,53.0,-99.9,29.96,SE,134,3.0,4.0,-999,-99.99,,,-99.99,,2013-06-05 02:22:00,
2013-06-04 19:32:00,53.0,-99.9,29.96,ENE,64,1.0,6.0,-999,-99.99,,,-99.99,,2013-06-05 02:32:00,
2013-06-04 19:42:00,53.0,-99.9,29.96,South,169,2.0,4.0,-999,-99.99,,,-99.99,,2013-06-05 02:42:00,
2013-06-04 19:52:00,53.0,-99.9,29.97,SSW,194,4.0,5.0,-999,-99.99,,,-99.99,,2013-06-05 02:52:00,
2013-06-04 20:03:00,53.0,-99.9,29.97,SSE,155,2.0,5.0,-999,-99.99,,,-99.99,,2013-06-05 03:03:00,
2013-06-04 20:12:00,53.0,-99.9,29.97,SSW,202,1.0,4.0,-999,-99.99,,,-99.99,,2013-06-05 03:12:00,
2013-06-04 20:22:00,53.0,-99.9,29.97,SSE,166,2.0,4.0,-999,-99.99,,,-99.99,,2013-06-05 03:22:00,
2013-06-04 20:33:00,53.0,-99.9,29.97,SSW,201,2.0,3.0,-999,-99.99,,,-99.99,,2013-06-05 03:33:00,
2013-06-04 20:43:00,53.0,-99.9,29.98,SSW,204,1.0,2.0,-999,-99.99,,,-99.99,,2013-06-05 03:43:00,
2013-06-04 20:53:00,53.0,-99.9,29.98,WSW,243,1.0,2.0,-999,-99.99,,,-99.99,,2013-06-05 03:53:00,
2013-06-04 21:03:00,53.0,-99.9,29.98,WNW,301,1.0,2.0,-999,-99.99,,,-99.99,,2013-06-05 04:03:00,
2013-06-04 21:13:00,53.0,-99.9,29.98,WNW,302,0.0,1.0,-999,-99.99,,,-99.99,,2013-06-05 04:13:00,
2013-06-04 21:23:00,53.0,-99.9,29.98,SW,223,0.0,1.0,-999,-99.99,,,-99.99,,2013-06-05 04:23:00,
2013-06-04 21:33:00,53.0,-99.9,29.98,West,265,-999.0,1.0,-999,-99.99,,,-99.99,,2013-06-05 04:33:00,
2013-06-04 21:43:00,53.0,-99.9,29.98,NW,305,0.0,1.0,-999,-99.99,,,-99.99,,2013-06-05 04:43:00,
2013-06-04 21:53:00,53.0,-99.9,29.98,NW,309,0.0,1.0,-999,-99.99,,,-99.99,,2013-06-05 04:53:00,
2013-06-04 22:02:00,53.0,-99.9,29.98,WSW,247,2.0,2.0,-999,-99.99,,,-99.99,,2013-06-05 05:02:00,
2013-06-04 22:12:00,53.0,-99.9,29.99,WSW,254,2.0,3.0,-999,-99.99,,,-99.99,,2013-06-05 05:12:00,
2013-06-04 22:23:00,53.0,-99.9,29.99,WNW,285,5.0,5.0,-999,-99.99,,,-99.99,,2013-06-05 05:23:00,
2013-06-04 22:32:00,53.0,-99.9,29.99,NW,322,2.0,4.0,-999,-99.99,,,-99.99,,2013-06-05 05:32:00,
2013-06-04 22:42:00,53.0,-99.9,29.99,NW,311,3.0,4.0,-999,-99.99,,,-99.99,,2013-06-05 05:42:00,
2013-06-04 22:53:00,53.0,-99.9,30.00,WNW,285,2.0,4.0,-999,-99.99,,,-99.99,,2013-06-05 05:53:00,
2013-06-04 23:02:00,53.0,-99.9,30.00,WNW,282,3.0,4.0,-999,-99.99,,,-99.99,,2013-06-05 06:02:00,
2013-06-04 23:12:00,52.0,-99.9,29.99,WNW,284,3.0,4.0,-999,-99.99,,,-99.99,,2013-06-05 06:12:00,
2013-06-04 23:22:00,52.0,-99.9,30.00,WNW,284,4.0,5.0,-999,-99.99,,,-99.99,,2013-06-05 06:22:00,
2013-06-04 23:32:00,52.0,-99.9,30.00,WNW,291,2.0,4.0,-999,-99.99,,,-99.99,,2013-06-05 06:32:00,
2013-06-04 23:42:00,52.0,-99.9,30.00,WNW,291,3.0,4.0,-999,-99.99,,,-99.99,,2013-06-05 06:42:00,
2013-06-04 23:52:00,52.0,-99.9,29.99,WNW,294,3.0,5.0,-999,-99.99,,,-99.99,,2013-06-05 06:52:00,